START_TIME,STEP,MOV.,M34,t_acc.,L5,t_acc.,L18,t_acc.,L14,t_acc.
1979-07-12 12:00:25.080 ,0,0,2.,12.0,0.,12.0,0.,12.0,0.,12.0
1979-07-12 12:00:37.080 ,0,0,2.,12.0,0.,12.0,0.,12.0,0.,12.0
1979-07-12 12:00:49.080 ,1,1,3.,12.0,0.,12.0,0.,12.0,1.,12.0
1979-07-12 12:01:01.080 ,1,1,1.,12.0,0.,12.0,0.,12.0,1.,12.0
1979-07-12 12:01:13.080 ,1,0,2.,12.0,0.,12.0,0.,12.0,0.,12.0
1979-07-12 12:01:25.080 ,1,0,2.,12.0,0.,12.0,0.,12.0,0.,12.0
1979-07-12 12:01:37.080 ,2,1,1.,12.0,0.,12.0,0.,12.0,0.,12.0
1979-07-12 12:01:49.080 ,2,1,2.,12.0,0.,12.0,0.,12.0,0.,12.0
1979-07-12 12:02:01.080 ,2,0,2.,12.0,0.,12.0,0.,12.0,0.,12.0
1979-07-12 12:02:13.080 ,2,0,2.,12.0,0.,12.0,0.,12.0,0.,12.0
1979-07-12 12:02:25.080 ,3,1,9.,12.0,0.,12.0,0.,12.0,1.,12.0
1979-07-12 12:02:37.080 ,3,1,8.,12.0,0.,12.0,0.,12.0,0.,12.0
1979-07-12 12:02:49.080 ,3,0,7.,12.0,0.,12.0,0.,12.0,0.,12.0
1979-07-12 12:03:01.080 ,3,0,8.,12.0,0.,12.0,0.,12.0,0.,12.0
1979-07-12 12:03:13.080 ,4,1,5.,12.0,0.,12.0,0.,12.0,0.,12.0
1979-07-12 12:03:25.080 ,4,1,5.,12.0,0.,12.0,0.,12.0,1.,12.0
1979-07-12 12:03:37.080 ,4,0,4.,12.0,0.,12.0,0.,12.0,0.,12.0
1979-07-12 12:03:49.080 ,4,0,3.,12.0,0.,12.0,0.,12.0,0.,12.0
1979-07-12 12:04:01.080 ,5,1,10.,12.0,0.,12.0,0.,12.0,0.,12.0
1979-07-12 12:04:13.080 ,5,1,7.,12.0,0.,12.0,0.,12.0,1.,12.0
1979-07-12 12:04:25.080 ,5,0,6.,12.0,0.,12.0,0.,12.0,0.,12.0
1979-07-12 12:04:37.080 ,5,0,6.,12.0,0.,12.0,0.,12.0,0.,12.0
1979-07-12 12:04:49.080 ,6,1,5.,12.0,0.,12.0,0.,12.0,0.,12.0
1979-07-12 12:05:01.080 ,6,1,3.,12.0,0.,12.0,0.,12.0,0.,12.0
1979-07-12 12:05:13.080 ,6,0,1.,12.0,0.,12.0,0.,12.0,0.,12.0
1979-07-12 12:05:25.080 ,6,0,2.,12.0,0.,12.0,0.,12.0,0.,12.0
1979-07-12 12:05:37.080 ,7,1,5.,12.0,0.,12.0,0.,12.0,0.,12.0
1979-07-12 12:05:49.080 ,7,1,0.,12.0,0.,12.0,0.,12.0,0.,12.0
1979-07-12 12:06:01.080 ,7,0,0.,12.0,0.,12.0,0.,12.0,0.,12.0
1979-07-12 12:06:13.080 ,7,0,0.,12.0,0.,12.0,0.,12.0,0.,12.0
1979-07-12 12:06:25.080 ,7,1,0.,12.0,0.,12.0,0.,12.0,0.,12.0
1979-07-12 12:06:37.080 ,7,1,0.,12.0,0.,12.0,0.,12.0,0.,12.0
1979-07-12 12:06:49.080 ,7,0,0.,12.0,0.,12.0,0.,12.0,0.,12.0
1979-07-12 12:07:01.080 ,7,0,0.,12.0,0.,12.0,0.,12.0,0.,12.0
1979-07-12 12:07:13.080 ,6,1,0.,12.0,0.,12.0,0.,12.0,0.,12.0
1979-07-12 12:07:25.080 ,6,1,5.,12.0,0.,12.0,0.,12.0,0.,12.0
1979-07-12 12:07:37.080 ,6,0,3.,12.0,0.,12.0,0.,12.0,0.,12.0
1979-07-12 12:07:49.080 ,6,0,3.,12.0,0.,12.0,0.,12.0,0.,12.0
1979-07-12 12:08:01.080 ,5,1,2.,12.0,0.,12.0,0.,12.0,0.,12.0
1979-07-12 12:08:13.080 ,5,1,4.,12.0,0.,12.0,0.,12.0,0.,12.0
1979-07-12 12:08:25.080 ,5,0,5.,12.0,0.,12.0,0.,12.0,0.,12.0
1979-07-12 12:08:37.080 ,5,0,0.,12.0,0.,12.0,0.,12.0,1.,12.0
1979-07-12 12:08:49.080 ,4,1,6.,12.0,0.,12.0,0.,12.0,0.,12.0
1979-07-12 12:09:01.080 ,4,1,4.,12.0,0.,12.0,0.,12.0,0.,12.0
1979-07-12 12:09:13.080 ,4,0,2.,12.0,0.,12.0,0.,12.0,0.,12.0
1979-07-12 12:09:25.080 ,4,0,2.,12.0,0.,12.0,0.,12.0,0.,12.0
1979-07-12 12:09:37.080 ,3,1,2.,12.0,0.,12.0,0.,12.0,0.,12.0
1979-07-12 12:09:49.080 ,3,1,4.,12.0,0.,12.0,0.,12.0,0.,12.0
1979-07-12 12:10:01.080 ,3,0,5.,12.0,0.,12.0,0.,12.0,0.,12.0
1979-07-12 12:10:13.080 ,3,0,4.,12.0,0.,12.0,0.,12.0,0.,12.0
1979-07-12 12:10:25.080 ,2,1,7.,12.0,0.,12.0,0.,12.0,0.,12.0
1979-07-12 12:10:37.080 ,2,1,3.,12.0,0.,12.0,0.,12.0,0.,12.0
1979-07-12 12:10:49.080 ,2,0,5.,12.0,0.,12.0,0.,12.0,0.,12.0
1979-07-12 12:11:01.080 ,2,0,0.,12.0,0.,12.0,0.,12.0,0.,12.0
1979-07-12 12:11:13.080 ,1,1,3.,12.0,0.,12.0,0.,12.0,0.,12.0
1979-07-12 12:11:25.080 ,1,1,3.,12.0,0.,12.0,0.,12.0,0.,12.0
1979-07-12 12:11:37.080 ,1,0,0.,12.0,0.,12.0,0.,12.0,1.,12.0
1979-07-12 12:11:49.080 ,1,0,4.,12.0,0.,12.0,0.,12.0,0.,12.0
1979-07-12 12:12:01.080 ,0,1,4.,12.0,0.,12.0,0.,12.0,0.,12.0
1979-07-12 12:12:13.080 ,0,1,0.,12.0,0.,12.0,0.,12.0,0.,12.0
1979-07-12 12:12:25.080 ,0,0,1.,12.0,0.,12.0,0.,12.0,0.,12.0
1979-07-12 12:12:37.080 ,0,0,1.,12.0,0.,12.0,0.,12.0,0.,12.0
1979-07-12 12:12:49.080 ,0,1,2.,12.0,0.,12.0,0.,12.0,0.,12.0
1979-07-12 12:13:01.080 ,0,1,3.,12.0,0.,12.0,0.,12.0,0.,12.0
1979-07-12 12:13:13.080 ,0,0,1.,12.0,0.,12.0,0.,12.0,0.,12.0
1979-07-12 12:13:25.080 ,0,0,2.,12.0,0.,12.0,0.,12.0,0.,12.0
1979-07-12 12:13:37.080 ,1,1,3.,12.0,0.,12.0,0.,12.0,0.,12.0
1979-07-12 12:13:49.080 ,1,1,1.,12.0,0.,12.0,0.,12.0,0.,12.0
1979-07-12 12:14:01.080 ,1,0,2.,12.0,0.,12.0,0.,12.0,0.,12.0
1979-07-12 12:14:13.080 ,1,0,2.,12.0,0.,12.0,0.,12.0,0.,12.0
1979-07-12 12:14:25.080 ,2,1,2.,12.0,0.,12.0,0.,12.0,0.,12.0
1979-07-12 12:14:37.080 ,2,1,0.,12.0,0.,12.0,0.,12.0,0.,12.0
1979-07-12 12:14:49.080 ,2,0,2.,12.0,0.,12.0,0.,12.0,0.,12.0
1979-07-12 12:15:01.080 ,2,0,3.,12.0,0.,12.0,0.,12.0,0.,12.0
1979-07-12 12:15:13.080 ,3,1,2.,12.0,0.,12.0,0.,12.0,0.,12.0
1979-07-12 12:15:25.080 ,3,1,1.,12.0,0.,12.0,0.,12.0,0.,12.0
1979-07-12 12:15:37.080 ,3,0,1.,12.0,0.,12.0,0.,12.0,0.,12.0
1979-07-12 12:15:49.080 ,3,0,4.,12.0,0.,12.0,0.,12.0,0.,12.0
1979-07-12 12:16:01.080 ,4,1,2.,12.0,0.,12.0,0.,12.0,1.,12.0
1979-07-12 12:16:13.080 ,4,1,1.,12.0,0.,12.0,0.,12.0,0.,12.0
1979-07-12 12:16:25.080 ,4,0,6.,12.0,0.,12.0,0.,12.0,0.,12.0
1979-07-12 12:16:37.080 ,4,0,4.,12.0,0.,12.0,0.,12.0,0.,12.0
1979-07-12 12:16:49.080 ,5,1,1.,12.0,0.,12.0,0.,12.0,0.,12.0
1979-07-12 12:17:01.080 ,5,1,4.,12.0,0.,12.0,0.,12.0,0.,12.0
1979-07-12 12:17:13.080 ,5,0,5.,12.0,0.,12.0,0.,12.0,0.,12.0
1979-07-12 12:17:25.080 ,5,0,3.,12.0,0.,12.0,0.,12.0,1.,12.0
1979-07-12 12:17:37.080 ,6,1,6.,12.0,0.,12.0,0.,12.0,1.,12.0
1979-07-12 12:17:49.080 ,6,1,5.,12.0,0.,12.0,0.,12.0,0.,12.0
1979-07-12 12:18:01.080 ,6,0,3.,12.0,0.,12.0,0.,12.0,0.,12.0
1979-07-12 12:18:13.080 ,6,0,2.,12.0,0.,12.0,0.,12.0,0.,12.0
1979-07-12 12:18:25.080 ,7,0,8.,12.0,0.,12.0,0.,12.0,0.,12.0
1979-07-12 12:18:37.080 ,7,0,0.,12.0,0.,12.0,0.,12.0,0.,12.0
1979-07-12 12:18:49.080 ,7,0,0.,12.0,0.,12.0,0.,12.0,0.,12.0
1979-07-12 12:19:01.080 ,7,0,0.,12.0,0.,12.0,0.,12.0,0.,12.0
1979-07-12 12:19:13.080 ,4,1,1.,12.0,0.,12.0,0.,12.0,0.,12.0
1979-07-12 12:19:25.080 ,4,1,3.,12.0,0.,12.0,0.,12.0,0.,12.0
1979-07-12 12:19:37.080 ,0,1,11.,12.0,0.,12.0,0.,12.0,0.,12.0
1979-07-12 12:19:49.080 ,0,1,3.,12.0,0.,12.0,0.,12.0,0.,12.0
1979-07-12 12:20:01.080 ,3,1,4.,12.0,0.,12.0,0.,12.0,1.,12.0
1979-07-12 12:20:13.080 ,3,1,5.,12.0,0.,12.0,0.,12.0,0.,12.0
1979-07-12 12:20:25.080 ,7,1,8.,12.0,0.,12.0,0.,12.0,0.,12.0
1979-07-12 12:20:37.080 ,7,1,4.,12.0,0.,12.0,0.,12.0,0.,12.0
1979-07-12 12:20:49.080 ,4,1,1.,12.0,0.,12.0,0.,12.0,0.,12.0
1979-07-12 12:21:01.080 ,4,1,3.,12.0,0.,12.0,0.,12.0,0.,12.0
1979-07-12 12:21:13.080 ,0,1,3.,12.0,0.,12.0,0.,12.0,0.,12.0
1979-07-12 12:21:25.080 ,0,1,4.,12.0,0.,12.0,0.,12.0,0.,12.0
1979-07-12 12:21:37.080 ,3,1,2.,12.0,0.,12.0,0.,12.0,0.,12.0
1979-07-12 12:21:49.080 ,3,1,3.,12.0,0.,12.0,0.,12.0,0.,12.0
1979-07-12 12:22:01.080 ,7,1,6.,12.0,0.,12.0,0.,12.0,0.,12.0
1979-07-12 12:22:13.080 ,7,1,3.,12.0,0.,12.0,0.,12.0,0.,12.0
1979-07-12 12:22:25.080 ,4,1,0.,12.0,0.,12.0,0.,12.0,0.,12.0
1979-07-12 12:22:37.080 ,4,1,3.,12.0,0.,12.0,0.,12.0,0.,12.0
1979-07-12 12:22:49.080 ,0,1,5.,12.0,0.,12.0,0.,12.0,0.,12.0
1979-07-12 12:23:01.080 ,0,1,1.,12.0,0.,12.0,0.,12.0,0.,12.0
1979-07-12 12:23:13.080 ,3,1,3.,12.0,0.,12.0,0.,12.0,0.,12.0
1979-07-12 12:23:25.080 ,3,1,3.,12.0,0.,12.0,0.,12.0,0.,12.0
1979-07-12 12:23:37.080 ,7,1,9.,12.0,0.,12.0,0.,12.0,1.,12.0
1979-07-12 12:23:49.080 ,7,1,0.,12.0,0.,12.0,0.,12.0,0.,12.0
1979-07-12 12:24:01.080 ,4,1,1.,12.0,0.,12.0,0.,12.0,0.,12.0
1979-07-12 12:24:13.080 ,4,1,1.,12.0,0.,12.0,0.,12.0,0.,12.0
1979-07-12 12:24:25.080 ,0,1,7.,12.0,0.,12.0,0.,12.0,1.,12.0
1979-07-12 12:24:37.080 ,0,1,2.,12.0,0.,12.0,0.,12.0,0.,12.0
1979-07-12 12:24:49.080 ,3,1,1.,12.0,0.,12.0,0.,12.0,0.,12.0
1979-07-12 12:25:01.080 ,3,1,4.,12.0,0.,12.0,0.,12.0,0.,12.0
1979-07-12 12:25:13.080 ,0,0,2.,12.0,0.,12.0,0.,12.0,1.,12.0
1979-07-12 12:25:25.080 ,0,0,,0,,0,,0,,0
1979-07-12 12:25:37.080 ,0,0,0.,12.0,0.,12.0,0.,12.0,0.,12.0
1979-07-12 12:25:49.080 ,0,0,0.,12.0,0.,12.0,0.,12.0,0.,12.0
1979-07-12 12:26:01.080 ,0,1,0.,12.0,0.,12.0,0.,12.0,0.,12.0
1979-07-12 12:26:13.080 ,0,1,0.,12.0,0.,12.0,0.,12.0,1.,12.0
1979-07-12 12:26:25.080 ,3,1,0.,12.0,0.,12.0,0.,12.0,0.,12.0
1979-07-12 12:26:37.080 ,3,1,0.,12.0,0.,12.0,0.,12.0,0.,12.0
1979-07-12 12:26:49.080 ,7,1,1.,12.0,0.,12.0,0.,12.0,0.,12.0
1979-07-12 12:27:01.080 ,7,1,1.,12.0,0.,12.0,0.,12.0,0.,12.0
1979-07-12 12:27:13.080 ,4,1,0.,12.0,0.,12.0,0.,12.0,0.,12.0
1979-07-12 12:27:25.080 ,4,1,2.,12.0,0.,12.0,0.,12.0,0.,12.0
1979-07-12 12:27:37.080 ,0,1,0.,12.0,0.,12.0,0.,12.0,0.,12.0
1979-07-12 12:27:49.080 ,0,1,0.,12.0,0.,12.0,0.,12.0,1.,12.0
1979-07-12 12:28:01.080 ,3,1,0.,12.0,0.,12.0,0.,12.0,1.,12.0
1979-07-12 12:28:13.080 ,3,1,2.,12.0,0.,12.0,0.,12.0,1.,12.0
1979-07-12 12:28:25.080 ,7,1,2.,12.0,0.,12.0,0.,12.0,0.,12.0
1979-07-12 12:28:37.080 ,7,1,2.,12.0,0.,12.0,0.,12.0,0.,12.0
1979-07-12 12:28:49.080 ,4,1,0.,12.0,0.,12.0,0.,12.0,0.,12.0
1979-07-12 12:29:01.080 ,4,1,4.,12.0,0.,12.0,0.,12.0,0.,12.0
1979-07-12 12:29:13.080 ,0,1,3.,12.0,0.,12.0,0.,12.0,0.,12.0
1979-07-12 12:29:25.080 ,0,1,3.,12.0,0.,12.0,0.,12.0,0.,12.0
1979-07-12 12:29:37.080 ,0,0,1.,12.0,0.,12.0,0.,12.0,0.,12.0
1979-07-12 12:29:49.080 ,0,0,0.,12.0,0.,12.0,0.,12.0,0.,12.0
1979-07-12 12:30:01.080 ,0,0,3.,12.0,0.,12.0,0.,12.0,0.,12.0
1979-07-12 12:30:13.080 ,0,0,0.,12.0,0.,12.0,0.,12.0,0.,12.0
1979-07-12 12:30:25.080 ,5,1,0.,12.0,0.,12.0,0.,12.0,0.,12.0
1979-07-12 12:30:37.080 ,5,1,1.,12.0,0.,12.0,0.,12.0,0.,12.0
1979-07-12 12:30:49.080 ,5,0,1.,12.0,0.,12.0,0.,12.0,0.,12.0
1979-07-12 12:31:01.080 ,5,0,0.,12.0,0.,12.0,0.,12.0,0.,12.0
1979-07-12 12:31:13.080 ,4,1,3.,12.0,0.,12.0,0.,12.0,0.,12.0
1979-07-12 12:31:25.080 ,4,1,0.,12.0,0.,12.0,0.,12.0,0.,12.0
1979-07-12 12:31:37.080 ,4,0,2.,12.0,0.,12.0,0.,12.0,0.,12.0
1979-07-12 12:31:49.080 ,4,0,2.,12.0,0.,12.0,0.,12.0,0.,12.0
1979-07-12 12:32:01.080 ,3,1,2.,12.0,0.,12.0,0.,12.0,0.,12.0
1979-07-12 12:32:13.080 ,3,1,1.,12.0,0.,12.0,0.,12.0,0.,12.0
1979-07-12 12:32:25.080 ,3,0,1.,12.0,0.,12.0,0.,12.0,0.,12.0
1979-07-12 12:32:37.080 ,3,0,1.,12.0,0.,12.0,0.,12.0,0.,12.0
1979-07-12 12:32:49.080 ,2,1,1.,12.0,0.,12.0,0.,12.0,1.,12.0
1979-07-12 12:33:01.080 ,2,1,1.,12.0,0.,12.0,0.,12.0,0.,12.0
1979-07-12 12:33:13.080 ,2,0,1.,12.0,0.,12.0,0.,12.0,0.,12.0
1979-07-12 12:33:25.080 ,2,0,0.,12.0,0.,12.0,0.,12.0,0.,12.0
1979-07-12 12:33:37.080 ,1,1,0.,12.0,0.,12.0,0.,12.0,0.,12.0
1979-07-12 12:33:49.080 ,1,1,2.,12.0,0.,12.0,0.,12.0,0.,12.0
1979-07-12 12:34:01.080 ,1,0,1.,12.0,0.,12.0,0.,12.0,1.,12.0
1979-07-12 12:34:13.080 ,1,0,2.,12.0,0.,12.0,0.,12.0,0.,12.0
1979-07-12 12:34:25.080 ,0,1,1.,12.0,0.,12.0,0.,12.0,0.,12.0
1979-07-12 12:34:37.080 ,0,1,1.,12.0,0.,12.0,0.,12.0,0.,12.0
1979-07-12 12:34:49.080 ,0,0,1.,12.0,0.,12.0,0.,12.0,0.,12.0
1979-07-12 12:35:01.080 ,0,0,1.,12.0,0.,12.0,0.,12.0,0.,12.0
1979-07-12 12:35:13.080 ,0,1,2.,12.0,0.,12.0,0.,12.0,0.,12.0
1979-07-12 12:35:25.080 ,0,1,2.,12.0,0.,12.0,0.,12.0,0.,12.0
1979-07-12 12:35:37.080 ,0,0,2.,12.0,0.,12.0,0.,12.0,1.,12.0
1979-07-12 12:35:49.080 ,0,0,2.,12.0,0.,12.0,0.,12.0,1.,12.0
1979-07-12 12:36:01.080 ,1,1,2.,12.0,0.,12.0,0.,12.0,0.,12.0
1979-07-12 12:36:13.080 ,1,1,1.,12.0,0.,12.0,0.,12.0,0.,12.0
1979-07-12 12:36:25.080 ,1,0,0.,12.0,0.,12.0,0.,12.0,0.,12.0
1979-07-12 12:36:37.080 ,1,0,2.,12.0,0.,12.0,0.,12.0,0.,12.0
1979-07-12 12:36:49.080 ,2,1,3.,12.0,0.,12.0,0.,12.0,0.,12.0
1979-07-12 12:37:01.080 ,2,1,0.,12.0,0.,12.0,0.,12.0,0.,12.0
1979-07-12 12:37:13.080 ,0,0,0.,12.0,0.,12.0,0.,12.0,0.,12.0
1979-07-12 12:37:25.080 ,0,0,3.,12.0,0.,12.0,0.,12.0,1.,12.0
1979-07-12 12:37:37.080 ,3,1,2.,12.0,0.,12.0,0.,12.0,0.,12.0
1979-07-12 12:37:49.080 ,3,1,2.,12.0,0.,12.0,0.,12.0,0.,12.0
1979-07-12 12:38:01.080 ,3,0,1.,12.0,0.,12.0,0.,12.0,0.,12.0
1979-07-12 12:38:13.080 ,3,0,0.,12.0,0.,12.0,0.,12.0,0.,12.0
1979-07-12 12:38:25.080 ,4,1,2.,12.0,0.,12.0,0.,12.0,0.,12.0
1979-07-12 12:38:37.080 ,4,1,4.,12.0,0.,12.0,0.,12.0,0.,12.0
1979-07-12 12:38:49.080 ,4,0,4.,12.0,0.,12.0,0.,12.0,0.,12.0
1979-07-12 12:39:01.080 ,4,0,1.,12.0,0.,12.0,0.,12.0,0.,12.0
1979-07-12 12:39:13.080 ,5,1,0.,12.0,0.,12.0,0.,12.0,0.,12.0
1979-07-12 12:39:25.080 ,5,1,3.,12.0,0.,12.0,0.,12.0,0.,12.0
1979-07-12 12:39:37.080 ,5,0,1.,12.0,0.,12.0,0.,12.0,0.,12.0
1979-07-12 12:39:49.080 ,5,0,0.,12.0,0.,12.0,0.,12.0,0.,12.0
1979-07-12 12:40:01.080 ,6,1,1.,12.0,0.,12.0,0.,12.0,0.,12.0
1979-07-12 12:40:13.080 ,6,1,0.,12.0,0.,12.0,0.,12.0,0.,12.0
1979-07-12 12:40:25.080 ,6,0,1.,12.0,0.,12.0,0.,12.0,0.,12.0
1979-07-12 12:40:37.080 ,6,0,1.,12.0,0.,12.0,0.,12.0,0.,12.0
1979-07-12 12:40:49.080 ,7,1,0.,12.0,0.,12.0,0.,12.0,0.,12.0
1979-07-12 12:41:01.080 ,7,1,0.,12.0,0.,12.0,0.,12.0,0.,12.0
1979-07-12 12:41:13.080 ,7,0,0.,12.0,0.,12.0,0.,12.0,0.,12.0
1979-07-12 12:41:25.080 ,7,0,0.,12.0,0.,12.0,0.,12.0,0.,12.0
1979-07-12 12:41:37.080 ,7,1,0.,12.0,0.,12.0,0.,12.0,0.,12.0
1979-07-12 12:41:49.080 ,7,1,0.,12.0,0.,12.0,0.,12.0,0.,12.0
1979-07-12 12:42:01.080 ,7,0,0.,12.0,0.,12.0,0.,12.0,0.,12.0
1979-07-12 12:42:13.080 ,7,0,0.,12.0,0.,12.0,0.,12.0,0.,12.0
1979-07-12 12:42:25.080 ,6,1,0.,12.0,0.,12.0,0.,12.0,0.,12.0
1979-07-12 12:42:37.080 ,6,1,2.,12.0,0.,12.0,0.,12.0,0.,12.0
1979-07-12 12:42:49.080 ,6,0,1.,12.0,0.,12.0,0.,12.0,0.,12.0
1979-07-12 12:43:01.080 ,6,0,1.,12.0,0.,12.0,0.,12.0,0.,12.0
1979-07-12 12:43:13.080 ,5,1,0.,12.0,0.,12.0,0.,12.0,0.,12.0
1979-07-12 12:43:25.080 ,5,1,1.,12.0,0.,12.0,0.,12.0,0.,12.0
1979-07-12 12:43:37.080 ,5,0,3.,12.0,0.,12.0,0.,12.0,0.,12.0
1979-07-12 12:43:49.080 ,5,0,4.,12.0,0.,12.0,0.,12.0,0.,12.0
1979-07-12 12:44:01.080 ,4,1,1.,12.0,0.,12.0,0.,12.0,0.,12.0
1979-07-12 12:44:13.080 ,4,1,6.,12.0,0.,12.0,0.,12.0,0.,12.0
1979-07-12 12:44:25.080 ,4,0,5.,12.0,0.,12.0,0.,12.0,1.,12.0
1979-07-12 12:44:37.080 ,4,0,2.,12.0,0.,12.0,0.,12.0,0.,12.0
1979-07-12 12:44:49.080 ,3,1,2.,12.0,0.,12.0,0.,12.0,0.,12.0
1979-07-12 12:45:01.080 ,3,1,0.,12.0,0.,12.0,0.,12.0,0.,12.0
1979-07-12 12:45:13.080 ,3,0,1.,12.0,0.,12.0,0.,12.0,0.,12.0
1979-07-12 12:45:25.080 ,3,0,2.,12.0,0.,12.0,0.,12.0,0.,12.0
1979-07-12 12:45:37.080 ,2,1,3.,12.0,0.,12.0,0.,12.0,0.,12.0
1979-07-12 12:45:49.080 ,2,1,1.,12.0,0.,12.0,0.,12.0,1.,12.0
1979-07-12 12:46:01.080 ,2,0,0.,12.0,0.,12.0,0.,12.0,0.,12.0
1979-07-12 12:46:13.080 ,2,0,4.,12.0,0.,12.0,0.,12.0,0.,12.0
1979-07-12 12:46:25.080 ,1,1,1.,12.0,0.,12.0,0.,12.0,0.,12.0
1979-07-12 12:46:37.080 ,1,1,1.,12.0,0.,12.0,0.,12.0,0.,12.0
1979-07-12 12:46:49.080 ,1,0,0.,12.0,0.,12.0,0.,12.0,0.,12.0
1979-07-12 12:47:01.080 ,1,0,0.,12.0,0.,12.0,0.,12.0,1.,12.0
1979-07-12 12:47:13.080 ,0,1,3.,12.0,0.,12.0,0.,12.0,0.,12.0
1979-07-12 12:47:25.080 ,0,1,0.,12.0,0.,12.0,0.,12.0,0.,12.0
1979-07-12 12:47:37.080 ,0,0,0.,12.0,0.,12.0,0.,12.0,0.,12.0
1979-07-12 12:47:49.080 ,0,0,2.,12.0,0.,12.0,0.,12.0,0.,12.0
1979-07-12 12:48:01.080 ,0,1,3.,12.0,0.,12.0,0.,12.0,0.,12.0
1979-07-12 12:48:13.080 ,0,1,1.,12.0,0.,12.0,0.,12.0,0.,12.0
1979-07-12 12:48:25.080 ,0,0,1.,12.0,0.,12.0,0.,12.0,0.,12.0
1979-07-12 12:48:37.080 ,0,0,0.,12.0,0.,12.0,0.,12.0,0.,12.0
1979-07-12 12:48:49.080 ,1,1,1.,12.0,0.,12.0,0.,12.0,0.,12.0
1979-07-12 12:49:01.080 ,1,1,0.,12.0,0.,12.0,0.,12.0,0.,12.0
1979-07-12 12:49:13.080 ,1,0,0.,12.0,0.,12.0,0.,12.0,1.,12.0
1979-07-12 12:49:25.080 ,1,0,4.,12.0,0.,12.0,0.,12.0,0.,12.0
1979-07-12 12:49:37.080 ,2,1,0.,12.0,0.,12.0,0.,12.0,0.,12.0
1979-07-12 12:49:49.080 ,2,1,0.,12.0,0.,12.0,0.,12.0,0.,12.0
1979-07-12 12:50:01.080 ,2,0,1.,12.0,0.,12.0,0.,12.0,0.,12.0
1979-07-12 12:50:13.080 ,2,0,1.,12.0,0.,12.0,0.,12.0,0.,12.0
1979-07-12 12:50:25.080 ,3,1,1.,12.0,0.,12.0,0.,12.0,0.,12.0
1979-07-12 12:50:37.080 ,3,1,1.,12.0,0.,12.0,0.,12.0,1.,12.0
1979-07-12 12:50:49.080 ,3,0,3.,12.0,0.,12.0,0.,12.0,0.,12.0
1979-07-12 12:51:01.080 ,3,0,0.,12.0,0.,12.0,0.,12.0,0.,12.0
1979-07-12 12:51:13.080 ,4,1,1.,12.0,0.,12.0,0.,12.0,0.,12.0
1979-07-12 12:51:25.080 ,4,1,2.,12.0,0.,12.0,0.,12.0,0.,12.0
1979-07-12 12:51:37.080 ,4,0,0.,12.0,0.,12.0,0.,12.0,0.,12.0
1979-07-12 12:51:49.080 ,4,0,0.,12.0,0.,12.0,0.,12.0,0.,12.0
1979-07-12 12:52:01.080 ,5,1,2.,12.0,0.,12.0,0.,12.0,1.,12.0
1979-07-12 12:52:13.080 ,5,1,0.,12.0,0.,12.0,0.,12.0,0.,12.0
1979-07-12 12:52:25.080 ,5,0,1.,12.0,0.,12.0,0.,12.0,0.,12.0
1979-07-12 12:52:37.080 ,5,0,0.,12.0,0.,12.0,0.,12.0,0.,12.0
1979-07-12 12:52:49.080 ,6,1,0.,12.0,0.,12.0,0.,12.0,0.,12.0
1979-07-12 12:53:01.080 ,6,1,0.,12.0,0.,12.0,0.,12.0,1.,12.0
1979-07-12 12:53:13.080 ,6,0,0.,12.0,0.,12.0,0.,12.0,0.,12.0
1979-07-12 12:53:25.080 ,6,0,0.,12.0,0.,12.0,0.,12.0,0.,12.0
1979-07-12 12:53:37.080 ,7,1,1.,12.0,0.,12.0,0.,12.0,1.,12.0
1979-07-12 12:53:49.080 ,7,1,0.,12.0,0.,12.0,0.,12.0,0.,12.0
1979-07-12 12:54:01.080 ,7,0,0.,12.0,0.,12.0,0.,12.0,0.,12.0
1979-07-12 12:54:13.080 ,7,0,0.,12.0,0.,12.0,0.,12.0,0.,12.0
1979-07-12 12:54:25.080 ,7,1,0.,12.0,0.,12.0,0.,12.0,0.,12.0
1979-07-12 12:54:37.080 ,7,1,0.,12.0,0.,12.0,0.,12.0,0.,12.0
1979-07-12 12:54:49.080 ,7,0,0.,12.0,0.,12.0,0.,12.0,0.,12.0
1979-07-12 12:55:01.080 ,7,0,0.,12.0,0.,12.0,0.,12.0,0.,12.0
1979-07-12 12:55:13.080 ,6,1,0.,12.0,0.,12.0,0.,12.0,0.,12.0
1979-07-12 12:55:25.080 ,6,1,0.,12.0,0.,12.0,0.,12.0,0.,12.0
1979-07-12 12:55:37.080 ,6,0,0.,12.0,0.,12.0,0.,12.0,0.,12.0
1979-07-12 12:55:49.080 ,6,0,0.,12.0,0.,12.0,0.,12.0,0.,12.0
1979-07-12 12:56:01.080 ,5,1,0.,12.0,0.,12.0,0.,12.0,0.,12.0
1979-07-12 12:56:13.080 ,5,1,1.,12.0,0.,12.0,0.,12.0,1.,12.0
1979-07-12 12:56:25.080 ,5,0,1.,12.0,0.,12.0,0.,12.0,0.,12.0
1979-07-12 12:56:37.080 ,5,0,1.,12.0,0.,12.0,0.,12.0,0.,12.0
1979-07-12 12:56:49.080 ,4,1,1.,12.0,0.,12.0,0.,12.0,0.,12.0
1979-07-12 12:57:01.080 ,4,1,1.,12.0,0.,12.0,0.,12.0,0.,12.0
1979-07-12 12:57:13.080 ,4,0,2.,12.0,0.,12.0,0.,12.0,0.,12.0
1979-07-12 12:57:25.080 ,4,0,0.,12.0,0.,12.0,0.,12.0,0.,12.0
1979-07-12 12:57:37.080 ,3,1,0.,12.0,0.,12.0,0.,12.0,0.,12.0
1979-07-12 12:57:49.080 ,3,1,0.,12.0,0.,12.0,0.,12.0,0.,12.0
1979-07-12 12:58:01.080 ,3,0,4.,12.0,0.,12.0,0.,12.0,0.,12.0
1979-07-12 12:58:13.080 ,3,0,1.,12.0,0.,12.0,0.,12.0,0.,12.0
1979-07-12 12:58:25.080 ,2,1,1.,12.0,0.,12.0,0.,12.0,0.,12.0
1979-07-12 12:58:37.080 ,2,1,2.,12.0,0.,12.0,0.,12.0,0.,12.0
1979-07-12 12:58:49.080 ,2,0,1.,12.0,0.,12.0,0.,12.0,0.,12.0
1979-07-12 12:59:01.080 ,2,0,1.,12.0,0.,12.0,0.,12.0,0.,12.0
1979-07-12 12:59:13.080 ,1,1,1.,12.0,0.,12.0,0.,12.0,0.,12.0
1979-07-12 12:59:25.080 ,1,1,1.,12.0,0.,12.0,0.,12.0,0.,12.0
1979-07-12 12:59:37.080 ,1,0,0.,12.0,0.,12.0,0.,12.0,0.,12.0
1979-07-12 12:59:49.080 ,1,0,0.,12.0,0.,12.0,0.,12.0,0.,12.0
1979-07-12 13:00:01.080 ,0,1,1.,12.0,0.,12.0,0.,12.0,0.,12.0
1979-07-12 13:00:13.080 ,0,1,0.,12.0,0.,12.0,0.,12.0,0.,12.0
1979-07-12 13:00:25.080 ,0,0,0.,12.0,0.,12.0,0.,12.0,0.,12.0
1979-07-12 13:00:37.080 ,0,0,2.,12.0,0.,12.0,0.,12.0,1.,12.0
1979-07-12 13:00:49.080 ,0,1,1.,12.0,0.,12.0,0.,12.0,0.,12.0
1979-07-12 13:01:01.080 ,0,1,1.,12.0,0.,12.0,0.,12.0,0.,12.0
1979-07-12 13:01:13.080 ,0,0,1.,12.0,0.,12.0,0.,12.0,0.,12.0
1979-07-12 13:01:25.080 ,0,0,1.,12.0,0.,12.0,0.,12.0,0.,12.0
1979-07-12 13:01:37.080 ,1,1,0.,12.0,0.,12.0,0.,12.0,0.,12.0
1979-07-12 13:01:49.080 ,1,1,2.,12.0,0.,12.0,0.,12.0,0.,12.0
1979-07-12 13:02:01.080 ,1,0,1.,12.0,0.,12.0,0.,12.0,1.,12.0
1979-07-12 13:02:13.080 ,1,0,1.,12.0,0.,12.0,0.,12.0,0.,12.0
1979-07-12 13:02:25.080 ,2,1,1.,12.0,0.,12.0,0.,12.0,0.,12.0
1979-07-12 13:02:37.080 ,2,1,0.,12.0,0.,12.0,0.,12.0,1.,12.0
1979-07-12 13:02:49.080 ,2,0,0.,12.0,0.,12.0,0.,12.0,0.,12.0
1979-07-12 13:03:01.080 ,2,0,1.,12.0,0.,12.0,0.,12.0,0.,12.0
1979-07-12 13:03:13.080 ,3,1,2.,12.0,0.,12.0,0.,12.0,0.,12.0
1979-07-12 13:03:25.080 ,3,1,2.,12.0,0.,12.0,0.,12.0,0.,12.0
1979-07-12 13:03:37.080 ,3,0,0.,12.0,0.,12.0,0.,12.0,0.,12.0
1979-07-12 13:03:49.080 ,3,0,1.,12.0,0.,12.0,0.,12.0,0.,12.0
1979-07-12 13:04:01.080 ,4,1,0.,12.0,0.,12.0,0.,12.0,0.,12.0
1979-07-12 13:04:13.080 ,4,1,2.,12.0,0.,12.0,0.,12.0,0.,12.0
1979-07-12 13:04:25.080 ,4,0,5.,12.0,0.,12.0,0.,12.0,0.,12.0
1979-07-12 13:04:37.080 ,4,0,3.,12.0,0.,12.0,0.,12.0,1.,12.0
1979-07-12 13:04:49.080 ,5,1,3.,12.0,0.,12.0,0.,12.0,0.,12.0
1979-07-12 13:05:01.080 ,5,1,3.,12.0,0.,12.0,0.,12.0,0.,12.0
1979-07-12 13:05:13.080 ,5,0,1.,12.0,0.,12.0,0.,12.0,0.,12.0
1979-07-12 13:05:25.080 ,5,0,1.,12.0,0.,12.0,0.,12.0,0.,12.0
1979-07-12 13:05:37.080 ,6,1,2.,12.0,0.,12.0,0.,12.0,0.,12.0
1979-07-12 13:05:49.080 ,6,1,0.,12.0,0.,12.0,0.,12.0,0.,12.0
1979-07-12 13:06:01.080 ,6,0,1.,12.0,0.,12.0,0.,12.0,0.,12.0
1979-07-12 13:06:13.080 ,6,0,1.,12.0,0.,12.0,0.,12.0,0.,12.0
1979-07-12 13:06:25.080 ,7,0,0.,12.0,0.,12.0,0.,12.0,0.,12.0
1979-07-12 13:06:37.080 ,7,0,0.,12.0,0.,12.0,0.,12.0,0.,12.0
1979-07-12 13:06:49.080 ,7,0,0.,12.0,0.,12.0,0.,12.0,0.,12.0
1979-07-12 13:07:01.080 ,7,0,0.,12.0,0.,12.0,0.,12.0,0.,12.0
1979-07-12 13:07:13.080 ,4,1,0.,12.0,0.,12.0,0.,12.0,0.,12.0
1979-07-12 13:07:25.080 ,4,1,2.,12.0,0.,12.0,0.,12.0,0.,12.0
1979-07-12 13:07:37.080 ,0,1,1.,12.0,0.,12.0,0.,12.0,0.,12.0
1979-07-12 13:07:49.080 ,0,1,1.,12.0,0.,12.0,0.,12.0,0.,12.0
1979-07-12 13:08:01.080 ,3,1,0.,12.0,0.,12.0,0.,12.0,0.,12.0
1979-07-12 13:08:13.080 ,3,1,0.,12.0,0.,12.0,0.,12.0,0.,12.0
1979-07-12 13:08:25.080 ,7,1,2.,12.0,0.,12.0,0.,12.0,0.,12.0
1979-07-12 13:08:37.080 ,7,1,1.,12.0,0.,12.0,0.,12.0,0.,12.0
1979-07-12 13:08:49.080 ,4,1,0.,12.0,0.,12.0,0.,12.0,0.,12.0
1979-07-12 13:09:01.080 ,4,1,0.,12.0,0.,12.0,0.,12.0,0.,12.0
1979-07-12 13:09:13.080 ,0,1,2.,12.0,0.,12.0,0.,12.0,0.,12.0
1979-07-12 13:09:25.080 ,0,1,1.,12.0,0.,12.0,0.,12.0,0.,12.0
1979-07-12 13:09:37.080 ,3,1,1.,12.0,0.,12.0,0.,12.0,0.,12.0
1979-07-12 13:09:49.080 ,3,1,1.,12.0,0.,12.0,0.,12.0,0.,12.0
1979-07-12 13:10:01.080 ,0,0,2.,12.0,0.,12.0,0.,12.0,0.,12.0
1979-07-12 13:10:13.080 ,0,0,1.,12.0,0.,12.0,0.,12.0,0.,12.0
1979-07-12 13:10:25.080 ,4,1,0.,12.0,0.,12.0,0.,12.0,0.,12.0
1979-07-12 13:10:37.080 ,4,1,0.,12.0,0.,12.0,0.,12.0,0.,12.0
1979-07-12 13:10:49.080 ,0,1,0.,12.0,0.,12.0,0.,12.0,0.,12.0
1979-07-12 13:11:01.080 ,0,1,0.,12.0,0.,12.0,0.,12.0,0.,12.0
1979-07-12 13:11:13.080 ,3,1,0.,12.0,0.,12.0,0.,12.0,0.,12.0
1979-07-12 13:11:25.080 ,3,1,0.,12.0,0.,12.0,0.,12.0,0.,12.0
1979-07-12 13:11:37.080 ,7,1,1.,12.0,0.,12.0,0.,12.0,0.,12.0
1979-07-12 13:11:49.080 ,7,1,1.,12.0,0.,12.0,0.,12.0,0.,12.0
1979-07-12 13:12:01.080 ,4,1,0.,12.0,0.,12.0,0.,12.0,0.,12.0
1979-07-12 13:12:13.080 ,4,1,0.,12.0,0.,12.0,0.,12.0,0.,12.0
1979-07-12 13:12:25.080 ,0,1,0.,12.0,0.,12.0,0.,12.0,0.,12.0
1979-07-12 13:12:37.080 ,0,1,0.,12.0,0.,12.0,0.,12.0,0.,12.0
1979-07-12 13:12:49.080 ,3,1,0.,12.0,0.,12.0,0.,12.0,0.,12.0
1979-07-12 13:13:01.080 ,3,1,1.,12.0,0.,12.0,0.,12.0,0.,12.0
1979-07-12 13:13:13.080 ,7,1,0.,12.0,0.,12.0,0.,12.0,0.,12.0
1979-07-12 13:13:25.080 ,7,1,0.,12.0,0.,12.0,0.,12.0,0.,12.0
1979-07-12 13:13:37.080 ,4,1,0.,12.0,0.,12.0,0.,12.0,0.,12.0
1979-07-12 13:13:49.080 ,4,1,0.,12.0,0.,12.0,0.,12.0,0.,12.0
1979-07-12 13:14:01.080 ,0,0,0.,12.0,0.,12.0,0.,12.0,0.,12.0
1979-07-12 13:14:13.080 ,0,0,,0,,0,,0,,0
1979-07-12 13:14:25.080 ,0,0,0.,12.0,0.,12.0,0.,12.0,0.,12.0
1979-07-12 13:14:37.080 ,0,0,0.,12.0,0.,12.0,0.,12.0,0.,12.0
1979-07-12 13:14:49.080 ,7,1,2.,12.0,0.,12.0,0.,12.0,0.,12.0
1979-07-12 13:15:01.080 ,7,1,0.,12.0,0.,12.0,0.,12.0,0.,12.0
1979-07-12 13:15:13.080 ,4,1,0.,12.0,0.,12.0,0.,12.0,0.,12.0
1979-07-12 13:15:25.080 ,4,1,0.,12.0,0.,12.0,0.,12.0,1.,12.0
1979-07-12 13:15:37.080 ,0,1,2.,12.0,0.,12.0,0.,12.0,0.,12.0
1979-07-12 13:15:49.080 ,0,1,1.,12.0,0.,12.0,0.,12.0,0.,12.0
1979-07-12 13:16:01.080 ,3,1,1.,12.0,0.,12.0,0.,12.0,0.,12.0
1979-07-12 13:16:13.080 ,3,1,0.,12.0,0.,12.0,0.,12.0,0.,12.0
1979-07-12 13:16:25.080 ,7,1,2.,12.0,0.,12.0,0.,12.0,1.,12.0
1979-07-12 13:16:37.080 ,7,1,0.,12.0,0.,12.0,0.,12.0,0.,12.0
1979-07-12 13:16:49.080 ,4,1,0.,12.0,0.,12.0,0.,12.0,0.,12.0
1979-07-12 13:17:01.080 ,4,1,0.,12.0,0.,12.0,0.,12.0,0.,12.0
1979-07-12 13:17:13.080 ,0,1,2.,12.0,0.,12.0,0.,12.0,0.,12.0
1979-07-12 13:17:25.080 ,0,1,0.,12.0,0.,12.0,0.,12.0,0.,12.0